Location: Haliburton Scout Reserve
(45.0900°N, 78.3200°W)
Time: 18:25:52
(UTC-04:00)

Courier 1B Rocket - Pass Details

Date: 09 February 2023
Orbit: 920 x 1202 km, 28.2° (Epoch: 22 March)

Event Time Altitude Azimuth Distance (km) Brightness Sun altitude
Rises 17:20:12 0° 245° (WSW) 3,636 11.6 1.2°
Reaches altitude 10° 17:24:12 10° 222° (SW) 2,646 8.6 0.5°
Maximum altitude 17:27:25 14° 191° (S) 2,317 7.5 0.0°
Drops below altitude 10° 17:30:35 10° 160° (SSE) 2,605 7.3 -0.6°
Sets 17:34:28 0° 137° (SE) 3,542 7.7 -1.2°
